San Ysidro, CA

6:14 PM PDT on August 27, 2016 (GMT -0700)
Brown Municipal

Weather History for KSDM - November, 2012

Change the Weather History Date:

Friday, November 2, 2012

  Actual Average Record
Temperature  
Mean Temperature 61 °F 62 °F  
Max Temperature 69 °F 74 °F 89 °F (2010)
Min Temperature 54 °F 50 °F 43 °F (1956)
Degree Days  
Heating Degree Days 4 4  
Month to date heating degree days 8  
Since 1 July heating degree days 73  
Cooling Degree Days 0 1  
Month to date cooling degree days 2  
Year to date cooling degree days 610  
Growing Degree Days 11 (Base 50)    
Moisture  
Dew Point 52 °F    
Average Humidity 72    
Maximum Humidity 93    
Minimum Humidity 52    
Precipitation  
Precipitation 0.00 in 0.05 in 0.54 in (1957)
Month to date precipitation 0.10  
Year to date precipitation 9.40  
Sea Level Pressure  
Sea Level Pressure 29.97 in    
Wind  
Wind Speed 2 mph (WNW)    
Max Wind Speed 12 mph    
Max Gust Speed 17 mph    
Visibility 10 miles    
Events      
T = Trace of Precipitation, MM = Missing Value Source: NWS Daily Summary

Daily Weather History Graph

Daily Weather History Graph

Search for Another Location

Airport or City:

Trip Planner

Search our weather history database for the weather conditions in past years. The results will help you decide how hot, cold, wet, or windy it might be!

Date:

Astronomy

Nov. 02, 2012 Rise Set
Actual Time 7:06 AM PDT 5:55 PM PDT
Civil Twilight 6:41 AM PDT 6:21 PM PDT
Nautical Twilight 6:12 AM PDT 6:50 PM PDT
Astronomical Twilight 5:43 AM PDT 7:19 PM PDT
Moon 8:53 PM PDT (11/2) 10:23 AM PDT (11/2)
Length of Visible Light 11h 40m
Length of Day
10h 49m
Waning Gibbous, 86% of the Moon is Illuminated
Nov 2
Waning Gibbous
Nov 6
Last Quarter
Nov 13
New
Nov 20
First Quarter
Nov 28
Full

Hourly Weather History & Observations

Time (PDT) Temp. Dew Point Humidity Pressure Visibility Wind Dir Wind Speed Gust Speed Precip Events Conditions
12:53 AM 60.1 °F 53.1 °F 78% 29.99 in 10.0 mi Calm Calm - N/A   Overcast
1:53 AM 60.1 °F 52.0 °F 75% 29.99 in 10.0 mi Calm Calm - N/A   Overcast
2:53 AM 60.1 °F 52.0 °F 75% 29.98 in 10.0 mi Calm Calm - N/A   Overcast
3:53 AM 60.1 °F 51.1 °F 72% 29.98 in 10.0 mi Calm Calm - N/A   Overcast
4:53 AM 59.0 °F 51.1 °F 75% 29.97 in 10.0 mi Calm Calm - N/A   Overcast
5:53 AM 60.1 °F 50.0 °F 69% 29.98 in 10.0 mi Calm Calm - N/A   Overcast
6:53 AM 60.1 °F 51.1 °F 72% 29.99 in 10.0 mi Calm Calm - N/A   Overcast
7:53 AM 60.1 °F 50.0 °F 69% 30.00 in 10.0 mi Calm Calm - N/A   Overcast
8:53 AM 61.0 °F 50.0 °F 67% 30.00 in 10.0 mi Calm Calm - N/A   Mostly Cloudy
9:53 AM 64.0 °F 51.1 °F 63% 30.00 in 10.0 mi Variable 3.5 mph - N/A   Clear
10:53 AM 64.9 °F 51.1 °F 61% 30.00 in 10.0 mi Calm Calm - N/A   Clear
11:53 AM 68.0 °F 50.0 °F 52% 29.98 in 10.0 mi Variable 4.6 mph - N/A   Clear
12:53 PM 66.9 °F 51.1 °F 57% 29.96 in 10.0 mi WNW 8.1 mph - N/A   Clear
1:53 PM 66.9 °F 52.0 °F 59% 29.94 in 10.0 mi West 11.5 mph 17.3 mph N/A   Clear
2:53 PM 68.0 °F 52.0 °F 56% 29.93 in 10.0 mi WNW 6.9 mph 17.3 mph N/A   Clear
3:53 PM 66.0 °F 53.1 °F 63% 29.93 in 10.0 mi West 10.4 mph - N/A   Clear
4:28 PM 64.4 °F 53.6 °F 68% 29.94 in 10.0 mi West 9.2 mph - N/A   Partly Cloudy
4:53 PM 64.0 °F 53.1 °F 67% 29.94 in 10.0 mi West 9.2 mph - N/A   Clear
5:53 PM 62.1 °F 54.0 °F 75% 29.95 in 10.0 mi West 6.9 mph - N/A   Clear
6:53 PM 60.1 °F 54.0 °F 80% 29.97 in 10.0 mi West 4.6 mph - N/A   Clear
7:53 PM 59.0 °F 54.0 °F 83% 29.97 in 10.0 mi Calm Calm - N/A   Clear
8:53 PM 55.0 °F 52.0 °F 89% 29.98 in 10.0 mi Calm Calm - N/A   Clear
9:53 PM 55.9 °F 53.1 °F 90% 29.98 in 10.0 mi ENE 3.5 mph - N/A   Clear
10:53 PM 54.0 °F 52.0 °F 93% 29.98 in 10.0 mi East 3.5 mph - N/A   Clear
11:53 PM 54.0 °F 51.1 °F 90% 29.97 in 10.0 mi Calm Calm - N/A   Clear